User: anonymous   Login
Location: Unspecified
(0.0000°N, 0.0000°E)
Time: 09:06:05
(UTC+02:00)
Language:

Meteor 1-31 Rocket - Orbit

View from above orbital plane
View from above orbital plane
View from above satellite
View from above satellite

Ground track
Ground track

The orbit data is extracted from the following two-line orbital elements,

1 12586U 81065B   18109.92131951 +.00000121 +00000-0 +11311-4 0  9997
2 12586 097.5341 090.6989 0017778 223.7313 136.2509 15.10258115998624
Epoch (UTC): 19 April 2018 22:06:42
Eccentricity: 0.0017778
inclination: 97.5341°
perigee height: 523 km
apogee height: 548 km
right ascension of ascending node: 90.6989°
argument of perigee: 223.7313°
revolutions per day: 15.10258115
mean anomaly at epoch: 136.2509°
orbit number at epoch: 99862

The dashed part of the orbit path shows where the satellite is in the earth's shadow,  

DLR